COSMOS 1989 (ETALON 1)

Last updated on Mon Oct 27 2025 00:03:45 GMT+0000 (Coordinated Universal Time)

1 19751U 89001C 25299.54316759 .00000031 00000+0 00000+0 0 9990 2 19751 64.8104 80.1942 0023447 216.8957 99.2095 2.13156101286381
UTC large
Height (km)
Speed (km/s)
/
Latitude / Longitude
Inclination (degrees)
Orbital Period (minutes)
Azimuth
Elevation
Range (km)
Doppler Factor

Next 0 passes for location: London (51.5072 / 0.1276)

Sorry there are no passes over London.